Notices

What's New in latest Release from April 7th, 2021:

- Updated Glossary, including Speed of Maximum Gust, and Total Hourly Precipitation

- Updated national and regional climate services offices contacts and prices information

- Addition of station inventory lists for 1981-2010, 1971-2000, and 1961-1990 Normals.

If you haven't already, please take our survey and provide feedback about our website: https://eccc.sondage-survey.ca/f/LanguageSelection.aspx?s=442ca660-fcf1-47c0-95a9-59707d6fd709

Hourly Data Report for April 26, 2018

CLYDE RIVER A
NUNAVUT
Current Station Operator: NAVCAN

70°29'09.000" N
68°31'01.000" W
26.50 m
2400804
71090
YCY

Download Data

Hourly Data (April 2018)
Hourly Data Report for April 26, 2018
TIME
LST
Temp Definition
°C
Dew Point Definition
°C
Rel Hum Definition
%
Precip. Amount Definition
mm

Wind Dir Definition
10's deg

Wind Spd Definition
km/h
Visibility Definition
km
Stn Press Definition
kPa
Hmdx Definition


Wind Chill Definition


Weather Definition


00:00 -25.3 -27.7 81 0.0 31 9 2.8 100.98   -33 Snow
01:00 -24.6 -26.5 85 0.0 30 9 16.1 100.98   -32 Snow
02:00 -25.7 -28.0 81 0.0 32 13 9.7 100.98   -35 Snow
03:00 -26.5 -29.2 78 0.0 31 15 16.1 100.96   -37 LegendNANA
04:00 -24.6 -26.9 82 0.0 33 13 3.6 100.96   -34 Snow
05:00 -25.2 -27.7 80 0.0 33 13 1.6 100.96   -35 Snow
06:00 -24.6 -27.0 81 0.0 34 9 14.5 100.97   -32 Snow
07:00 -23.3 -25.6 82 0.0 33 11 14.5 100.96   -32 Snow
08:00 -21.0 -23.0 84 0.0 34 11 6.4 100.94   -29 Snow
09:00 -20.8 -23.0 83 0.0 34 11 16.1 100.94   -29 Snow
10:00 -19.8 -21.9 84 0.0 34 9 12.9 100.92   -27 Snow
11:00 -18.8 -20.9 84 0.0 34 15 4.8 100.88   -28 Snow
12:00 -18.3 -20.5 83 0.0 34 15 2.4 100.84   -27 Snow
13:00 -17.7 -20.3 81 0.0 33 21 2.8 100.79   -28 Snow
14:00 -17.3 -20.1 79 0.0 33 24 2.0 100.75   -28 Snow
15:00 -17.4 -20.1 80 0.0 32 28 3.2 100.71   -29 Snow
16:00 -17.3 -19.8 81 0.0 32 28 9.7 100.68   -29 Snow
17:00 -17.2 -19.4 83 0.0 32 35 1.2 100.59   -30 Snow
18:00 -17.4 -19.4 85 0.0 31 35 0.4 100.54   -30 Heavy Snow
19:00 -17.4 -19.4 85 0.0 31 34 0.6 100.49   -30 Moderate Snow
20:00 -17.5 -19.6 84 0.0 31 39 0.8 100.44   -31 Moderate Snow,Blowing Snow
21:00 -17.7 -19.7 85 0.0 31 43 0.6 100.37   -31 Moderate Snow,Blowing Snow
22:00 -18.1 -20.2 84 0.0 31 46 1.2 100.29   -32 Snow,Blowing Snow
23:00 -17.9 -20.0 84 0.0 31 45 1.2 100.22   -32 Snow,Blowing Snow

Notes on Data Quality.

Legend

  • E = Estimated
  • M = Missing
  • NA = Not Available*
  • [empty] = Indicates an unobserved value
Date modified: